Location: Unspecified
(52.0000°N, 19.0000°E)
Time: 01:20:17
(UTC+00:00)

ISS - Visible Passes

Search period start: 24 October 2020 00:00
Search period end: 03 November 2020 00:00
Orbit: 417 x 420 km, 51.6° (Epoch: 23 October)

Date Brightness Start Highest point End Pass type
(mag) Time Alt. Az. Time Alt. Az. Time Alt. Az.
24 Oct -1.2 04:06:49 10° S 04:09:14 19° SE 04:11:40 10° E visible
25 Oct -0.9 03:20:04 10° SSE 03:21:42 13° SE 03:23:20 10° ESE visible
26 Oct -2.3 04:07:10 10° SW 04:10:13 34° SSE 04:13:19 10° E visible
27 Oct -2.0 03:21:42 22° S 03:22:35 25° SSE 03:25:26 10° E visible
27 Oct -3.5 04:55:42 10° WSW 04:59:04 71° SSE 05:02:25 10° E visible
28 Oct -1.0 02:36:09 16° ESE 02:36:09 16° ESE 02:37:25 10° E visible
28 Oct -3.3 04:09:06 19° WSW 04:11:20 59° SSE 04:14:40 10° E visible
29 Oct -3.1 03:23:28 45° SSE 03:23:38 46° SSE 03:26:53 10° E visible
29 Oct -3.7 04:56:56 10° W 05:00:18 86° S 05:03:41 10° E visible
30 Oct -1.1 02:37:45 20° E 02:37:45 20° E 02:39:03 10° E visible
30 Oct -3.8 04:10:42 25° WSW 04:12:32 81° S 04:15:55 10° E visible
31 Oct -3.6 03:24:56 69° SE 03:24:56 69° SE 03:28:09 10° E visible
31 Oct -3.7 04:58:10 10° W 05:01:32 81° SSW 05:04:55 10° E visible
01 Nov -1.1 02:39:09 20° E 02:39:09 20° E 02:40:22 10° E visible
01 Nov -3.8 04:12:06 27° W 04:13:47 86° S 04:17:09 10° E visible
02 Nov -3.6 03:26:17 73° E 03:26:17 73° E 03:29:23 10° E visible
02 Nov -3.4 04:59:25 10° W 05:02:45 60° SSW 05:06:04 10° ESE visible
